Total_Precipitation_Accumulation
0.02 0.06 0.17 0.16 0.15 0.14 0.13 0.13 0.13 0.12 0.14 0.18 0.22 0.24 0.24 0.23 0.21 0.18 0.19 0.19 0.19 0.21 0.24 0.28 0.28 0.26 0.25 0.24 0.20 0.14 0.09 0.07 0.07 0.07 0.06 0.09 0.10 0.10 0.08 0.09 0.11 0.12 0.16
0.01 0.06 0.17 0.17 0.18 0.17 0.16 0.15 0.14 0.13 0.15 0.21 0.29 0.29 0.25 0.22 0.22 0.20 0.16 0.16 0.16 0.20 0.27 0.29 0.21 0.15 0.11 0.08 0.07 0.05 0.05 0.04 0.03 0.01 0.01 0.02 0.04 0.06 0.06 0.06 0.08 0.11 0.13
0.01 0.07 0.16 0.19 0.20 0.19 0.16 0.14 0.13 0.14 0.18 0.24 0.31 0.31 0.27 0.21 0.19 0.19 0.16 0.16 0.16 0.19 0.21 0.20 0.14 0.10 0.07 0.07 0.04 0.02 0.02 0.01 0.01 0.00 0.01 0.01 0.02 0.03 0.03 0.04 0.06 0.09 0.11
0.03 0.06 0.13 0.21 0.22 0.20 0.18 0.17 0.16 0.18 0.22 0.26 0.33 0.32 0.29 0.25 0.24 0.22 0.19 0.15 0.13 0.13 0.12 0.14 0.10 0.06 0.04 0.04 0.03 0.01 0.01 0.01 0.00 0.01 0.01 0.01 0.02 0.04 0.05 0.05 0.07 0.09 0.11
0.06 0.08 0.16 0.22 0.24 0.23 0.22 0.19 0.19 0.22 0.25 0.29 0.33 0.33 0.27 0.25 0.24 0.21 0.19 0.14 0.12 0.11 0.10 0.11 0.09 0.05 0.03 0.02 0.02 0.02 0.01 0.00 0.00 0.00 0.01 0.02 0.02 0.05 0.08 0.08 0.10 0.11 0.11
0.10 0.16 0.24 0.26 0.27 0.27 0.24 0.22 0.22 0.25 0.30 0.34 0.37 0.35 0.28 0.27 0.28 0.24 0.18 0.12 0.10 0.10 0.10 0.10 0.10 0.06 0.04 0.03 0.02 0.01 0.01 0.00 0.00 0.00 0.01 0.02 0.03 0.06 0.07 0.08 0.11 0.13 0.14
0.15 0.22 0.30 0.32 0.33 0.32 0.30 0.30 0.30 0.32 0.37 0.41 0.42 0.39 0.34 0.31 0.31 0.27 0.20 0.12 0.09 0.09 0.10 0.10 0.10 0.08 0.06 0.04 0.03 0.02 0.01 0.00 0.00 0.00 0.01 0.02 0.03 0.05 0.07 0.09 0.12 0.14 0.14
0.30 0.37 0.43 0.43 0.39 0.37 0.36 0.34 0.32 0.37 0.44 0.47 0.45 0.44 0.40 0.35 0.34 0.32 0.25 0.15 0.12 0.11 0.14 0.12 0.11 0.09 0.07 0.05 0.03 0.02 0.01 0.00 0.00 0.00 0.00 0.01 0.03 0.08 0.09 0.09 0.11 0.12 0.12
0.63 0.66 0.64 0.57 0.47 0.44 0.39 0.36 0.33 0.36 0.44 0.50 0.50 0.49 0.44 0.40 0.37 0.34 0.28 0.21 0.17 0.16 0.16 0.14 0.11 0.09 0.07 0.06 0.05 0.02 0.01 0.00 0.00 0.00 0.00 0.01 0.04 0.10 0.12 0.13 0.14 0.14 0.14
1.00 0.99 0.88 0.76 0.62 0.54 0.48 0.40 0.36 0.36 0.40 0.45 0.46 0.44 0.39 0.34 0.33 0.31 0.23 0.21 0.20 0.19 0.17 0.14 0.12 0.10 0.07 0.05 0.05 0.03 0.02 0.01 0.00 0.00 0.00 0.02 0.08 0.16 0.18 0.18 0.20 0.18 0.15
1.23 1.25 1.19 0.98 0.78 0.64 0.56 0.43 0.39 0.37 0.38 0.39 0.40 0.35 0.33 0.33 0.31 0.27 0.19 0.14 0.15 0.18 0.17 0.16 0.13 0.11 0.08 0.06 0.04 0.03 0.02 0.01 0.00 0.00 0.01 0.04 0.11 0.15 0.14 0.14 0.13 0.11 0.09
1.30 1.29 1.31 1.19 0.95 0.76 0.63 0.52 0.45 0.38 0.36 0.33 0.29 0.30 0.27 0.27 0.30 0.25 0.23 0.19 0.17 0.17 0.17 0.17 0.15 0.13 0.10 0.05 0.03 0.02 0.02 0.01 0.01 0.00 0.01 0.02 0.05 0.08 0.08 0.06 0.05 0.06 0.05
1.41 1.39 1.42 1.38 1.16 0.92 0.71 0.55 0.49 0.42 0.40 0.36 0.30 0.27 0.27 0.29 0.31 0.32 0.30 0.28 0.26 0.19 0.18 0.18 0.17 0.11 0.07 0.04 0.03 0.02 0.01 0.01 0.01 0.00 0.00 0.00 0.02 0.05 0.07 0.06 0.05 0.05 0.05
1.53 1.43 1.45 1.46 1.31 1.11 0.85 0.65 0.51 0.43 0.41 0.38 0.34 0.33 0.35 0.33 0.30 0.30 0.30 0.28 0.28 0.23 0.20 0.17 0.13 0.10 0.09 0.07 0.05 0.04 0.03 0.02 0.01 0.01 0.01 0.00 0.01 0.03 0.05 0.07 0.08 0.09 0.09
1.52 1.51 1.48 1.42 1.34 1.24 1.10 0.85 0.62 0.51 0.46 0.45 0.43 0.39 0.39 0.37 0.34 0.34 0.33 0.32 0.28 0.27 0.25 0.21 0.18 0.15 0.12 0.11 0.09 0.08 0.06 0.04 0.02 0.01 0.01 0.01 0.01 0.02 0.03 0.06 0.10 0.13 0.14
1.39 1.48 1.51 1.41 1.32 1.21 1.16 1.07 0.85 0.64 0.54 0.54 0.52 0.46 0.43 0.43 0.41 0.40 0.37 0.37 0.34 0.34 0.32 0.30 0.27 0.25 0.22 0.19 0.15 0.11 0.09 0.07 0.04 0.02 0.02 0.02 0.01 0.01 0.02 0.05 0.10 0.15 0.19
1.23 1.35 1.45 1.49 1.43 1.27 1.18 1.18 1.05 0.87 0.68 0.55 0.54 0.55 0.52 0.48 0.45 0.45 0.42 0.37 0.35 0.38 0.40 0.42 0.41 0.38 0.32 0.28 0.23 0.20 0.17 0.13 0.10 0.07 0.05 0.03 0.02 0.02 0.02 0.04 0.09 0.14 0.21
1.13 1.23 1.32 1.39 1.43 1.37 1.25 1.23 1.21 1.05 0.88 0.69 0.59 0.54 0.53 0.53 0.56 0.56 0.52 0.45 0.43 0.46 0.47 0.46 0.45 0.44 0.39 0.33 0.29 0.28 0.26 0.23 0.18 0.15 0.12 0.08 0.06 0.04 0.04 0.05 0.08 0.13 0.19
1.05 1.17 1.28 1.30 1.36 1.42 1.48 1.42 1.31 1.22 1.05 0.87 0.72 0.60 0.58 0.60 0.62 0.62 0.57 0.54 0.54 0.51 0.50 0.50 0.45 0.43 0.41 0.40 0.38 0.35 0.31 0.27 0.24 0.22 0.19 0.16 0.12 0.10 0.09 0.08 0.07 0.07 0.10
1.09 1.21 1.34 1.34 1.45 1.56 1.68 1.66 1.54 1.37 1.19 1.04 0.87 0.71 0.67 0.69 0.72 0.68 0.63 0.66 0.65 0.60 0.53 0.51 0.50 0.49 0.45 0.46 0.45 0.40 0.36 0.32 0.28 0.25 0.23 0.22 0.22 0.20 0.18 0.15 0.12 0.10 0.08
1.22 1.26 1.37 1.43 1.52 1.62 1.62 1.49 1.37 1.27 1.21 1.14 1.01 0.96 0.88 0.84 0.88 0.87 0.79 0.76 0.77 0.69 0.63 0.66 0.71 0.66 0.60 0.59 0.54 0.41 0.33 0.31 0.30 0.27 0.24 0.21 0.19 0.19 0.17 0.16 0.15 0.12 0.11
1.25 1.29 1.42 1.49 1.52 1.54 1.59 1.64 1.58 1.60 1.51 1.42 1.33 1.24 1.13 1.08 1.07 1.05 1.03 1.01 0.98 0.89 0.79 0.77 0.81 0.79 0.75 0.76 0.71 0.61 0.41 0.29 0.25 0.23 0.23 0.20 0.18 0.16 0.15 0.15 0.14 0.12 0.11
1.16 1.36 1.45 1.49 1.53 1.55 1.76 2.11 2.06 1.94 1.83 1.71 1.57 1.46 1.35 1.30 1.30 1.22 1.20 1.24 1.20 1.10 0.98 0.93 0.92 0.90 0.90 0.89 0.82 0.80 0.59 0.37 0.27 0.22 0.18 0.16 0.17 0.17 0.16 0.16 0.15 0.14 0.13
1.00 1.25 1.53 1.60 1.68 1.79 1.97 2.18 2.22 1.99 1.78 1.69 1.67 1.65 1.59 1.46 1.43 1.41 1.38 1.35 1.33 1.28 1.16 1.11 1.10 1.07 1.02 0.96 0.90 0.77 0.67 0.53 0.44 0.31 0.20 0.17 0.16 0.16 0.17 0.18 0.18 0.17 0.17
0.94 1.11 1.37 1.59 1.66 1.83 1.98 2.08 2.23 2.03 1.77 1.73 1.75 1.69 1.67 1.58 1.46 1.43 1.42 1.36 1.27 1.23 1.22 1.20 1.17 1.13 1.03 0.95 0.88 0.82 0.77 0.63 0.50 0.45 0.31 0.20 0.18 0.16 0.17 0.18 0.19 0.20 0.22
0.85 0.96 1.13 1.31 1.40 1.52 1.68 1.87 2.03 2.04 1.91 1.79 1.70 1.63 1.58 1.56 1.51 1.46 1.44 1.35 1.25 1.17 1.13 1.14 1.15 1.11 1.06 0.99 0.92 0.87 0.84 0.76 0.61 0.56 0.51 0.37 0.30 0.23 0.20 0.20 0.22 0.23 0.26